Regional Weather Roundup
Issued by NWS

Home | Current Version | Previous Version | Text Only | Print | Product List | Glossary On
Versions: 1 2 3 4 5 6 7 8 9 10 11 12 13 14 15 16 17 18 19 20 21 22 23 24 25 26 27 28 29 30 31 32 33 34 35 36 37 38 39 40 41 42 43 44 45 46 47 48 49 50
000
ASUS46 KLOX 071313
RWRCA

SOUTHERN CALIFORNIA WEATHER ROUNDUP
NATIONAL WEATHER SERVICE OXNARD CALIFORNIA
600 AM PDT TUE JUL 07 2015

NOTE: "FAIR" INDICATES FEW OR NO CLOUDS BELOW 12,000 FEET WITH NO
SIGNIFICANT WEATHER AND/OR OBSTRUCTIONS TO VISIBILITY.

  -  STATIONS PRECEEDED BY AN ASTERISK (*) ARE NOT NWS OR FAA
     STATIONS AND ARE NOT SUBJECT TO NWS AND FAA QUALITY CONTROL.

CAZ041-042-087-071400-
LA AND ORANGE COUNTY COASTAL AREAS


CITY           SKY/WX    TMP DP  RH WIND       PRES   REMARKS
L.A. DOWNTOWN  CLOUDY    66  59  78 CALM      29.97S
L.A. AIRPORT   CLOUDY    64  60  87 CALM      29.98S
LONG BEACH     CLOUDY    64  60  87 S5        29.98S

CITY           SKY/WX    TMP DP  RH WIND       PRES   REMARKS
AVALON           N/A     64 N/A N/A E1          N/A
FULLERTON      CLOUDY    66  60  81 S5        29.97S
*GETTY CENTER    N/A     57  55  94 NE2         N/A
HAWTHORNE      CLOUDY    66  60  81 SE6       29.98S
*LOS ALAMITOS  CLOUDY    62  62  99 S2        29.98S
*REDONDO BEACH   N/A     64  60  84 SW2       29.98S
SANTA ANA      CLOUDY    63  62  97 CALM      29.98R FOG
STA MONICA APT CLOUDY    61  59  93 CALM      29.98S
*UCLA            N/A     63  57  82 CALM      29.96R

$$

CAZ547-548-048-071400-
LA COUNTY VALLEYS AND INLAND EMPIRE


CITY           SKY/WX    TMP DP  RH WIND       PRES   REMARKS
BURBANK        CLOUDY    64  59  82 CALM      29.98S HAZE
VAN NUYS       CLOUDY    63  59  87 S5        29.98S FOG

CITY           SKY/WX    TMP DP  RH WIND       PRES   REMARKS
CORONA AIRPORT MOSUNNY   64  59  84 CALM      29.99S
CHINO          CLOUDY    65  59  81 CALM      30.00R HAZE
MARCH AFB      CLOUDY    61  61 100 CALM      29.99S FOG
*NORTHRIDGE      N/A     63  57  82 S3          N/A
ONTARIO        CLOUDY    64  58  80 S3        29.99R HAZE
*PASADENA        N/A     64  61  88 CALM        N/A
RIVERSIDE        N/A    N/A N/A N/A MISG      29.99S
SAN BERNARDINO NOT AVBL
*SAN GABRIEL     N/A     66  61  82 NE1       30.05
*WHITEMAN AP   NOT AVBL

$$

CAZ054-055-071400-
LA AND SAN BERNARDINO COUNTY MOUNTAINS


CITY           SKY/WX    TMP DP  RH WIND       PRES   REMARKS
*BIG BEAR AIRP SUNNY     43  36  75 CALM      30.27R
SANDBERG       CLEAR     62  46  55 NW17      30.11S

$$

CAZ028-029-059-060-099-071400-
ANTELOPE VALLEY AND SURROUNDING AREAS


CITY           SKY/WX    TMP DP  RH WIND       PRES   REMARKS
LANCASTER      CLEAR     69  49  48 W9        29.99R
PALMDALE       CLEAR     63  46  54 E6        30.00R

CITY           SKY/WX    TMP DP  RH WIND       PRES   REMARKS
29 PALMS       CLEAR     76  49  38 W7        30.00S
BARSTOW/DAGGET CLEAR     74  48  39 W12       29.95R
BISHOP         CLEAR     61  46  57 W6        30.08S
CHINA LAKE     PTCLDY    71  46  40 S5        29.94S
EDWARDS AFB    PTCLDY    66  50  56 S8        29.97R
MOJAVE         FAIR      70  50  49 CALM      30.01R
NEEDLES        CLEAR     85  54  34 CALM      29.86R
VICTORVILLE    CLEAR     66  43  42 CALM      30.03R

$$

CAZ039-040-071400-
VENTURA AND SANTA BARBARA COUNTY COAST


CITY           SKY/WX    TMP DP  RH WIND       PRES   REMARKS
CAMARILLO      CLOUDY    62  58  86 NE3       29.98R
OXNARD AIRPORT CLOUDY    63  58  83 N3        29.98R
*POINT MUGU    CLOUDY    65  59  81 NE5       29.98S HAZE
SBA APT/GOLETA PTCLDY    60  57  89 CALM      29.97R
*SANTA BARBARA   N/A     63  58  82 CALM      30.06R
*VENTURA         N/A     61  58  87 CALM      29.59S

$$

CAZ044-045-071400-
VENTURA COUNTY VALLEYS


CITY           SKY/WX    TMP DP  RH WIND       PRES   REMARKS
*SIMI VALLEY     N/A     59  57  91 CALM      29.93S
*OJAI            N/A     59  56  91 CALM      29.93R
*FILLMORE        N/A     59  55  88 SW3       29.88S

$$

CAZ053-071400-
VENTURA COUNTY MOUNTAINS


CITY           SKY/WX    TMP DP  RH WIND       PRES   REMARKS

$$

CAZ034-035-036-071400-
CENTRAL COAST AND SANTA YNEZ VALLEY


CITY           SKY/WX    TMP DP  RH WIND       PRES   REMARKS
SAN LUIS OBISP MOCLDY    57  53  86 CALM      30.01S
SANTA MARIA    CLOUDY    61  58  90 NW5       30.02S FOG

CITY           SKY/WX    TMP DP  RH WIND       PRES   REMARKS
*CAL POLY SLO    N/A     55  55 100 CALM        N/A
*LOMPOC        CLOUDY    61  55  82 NW9       30.03R
*PISMO BEACH     N/A     59  57  93 CALM      30.02S
*SANTA YNEZ    CLOUDY    59  55  88 N3        30.02R

$$

CAZ037-038-051-071400-
SAN LUIS OBISPO COUNTY INTERIOR AND CUYAMA VALLEY


CITY           SKY/WX    TMP DP  RH WIND       PRES   REMARKS
*CUYAMA          N/A     59  52  78 NE3       29.91S
PASO ROBLES    CLEAR     60  56  86 W6        30.02R

$$

CAZ032-033-061-071400-
SOUTHERN DESERTS


CITY           SKY/WX    TMP DP  RH WIND       PRES   REMARKS
BLYTHE         CLEAR     85  49  28 S8        29.82R
IMPERIAL       CLEAR     81  64  56 SE5       29.79R
PALM SPRINGS   PTCLDY    79  59  50 CALM      29.85R
THERMAL        CLEAR     81  59  47 NW6       29.79R

$$

ELSEWHERE ACROSS THE WESTERN UNITED STATES AND MEXICO


CITY           SKY/WX    TMP DP  RH WIND       PRES   REMARKS
DENVER, CO     CLOUDY    58  51  78 SE9       30.22R HAZE
GRAND CANYON,  CLOUDY    49  46  90 CALM      30.26R
HONOLULU, HI   LGT RAIN  77  70  78 VRB6      29.96F
KAHULUI, MAUI  CLEAR     75  66  73 NE14      29.96F
LAKE TAHOE, CA PTCLDY    49  45  86 SW3       30.21S
LAS VEGAS, NV  PTCLDY    78  59  51 S6        29.92R
MAMMOTH LAKES, FAIR      43  43 100 CALM      30.28S
MEXICO CITY, M MOSUNNY   57  50  77 CALM      30.40
PHOENIX, AZ    PTCLDY    86  65  49 SE7       29.88R
PORTLAND, OR   MOCLDY    60  55  83 NW7       30.06R
RENO, NV       MOCLDY    64  51  62 SW3       30.10S
SALT LAKE CITY MOCLDY    68  58  70 SE9       30.07R
SAN DIEGO, CA  CLOUDY    65  59  81 SW6       30.00R
SAN FRANCISCO, CLOUDY    63  57  81 W8        30.03R
SAN JOSE, CA   CLOUDY    63  57  81 W5        30.02R
SEATTLE, WA    MOCLDY    58  53  84 S6        30.07R
TIJUANA, MEX   DRIZZLE   63  57  82 W7        30.01

$$

STATION/POSITION TIME  TEMP    WIND        PRES    VSBY  WAVE
                       AIR SEA DIR/SP/G                  HT/PER
                 (UTC) (F)     (DEG/KT/KT) (MB)    (MI)  (FT/S)
POINT ARGUELLO B NOT AVBL
WEST SANTA BARBA 1250   61 60  330/ 19/ 21 1014.7F         4/13
POINT CONCEPTION NOT AVBL
EAST SANTA BARBA 1300   63 63   30/  4/  8 1015.5R
SANTA MONICA BAY 1250   64 67   80/  4/  8 1015.0R         3/14


USA.gov is the U.S. government's official web portal to all federal, state and local government web resources and services.